Tracking 19846 objects as of 20-Sep-2019
HD Live streaming from Space Station
objects crossing your sky now

LEMUR 2 LYNSEY-SYMO

Track LEMUR 2 LYNSEY-SYMO now!
10-day predictions
LEMUR 2 LYNSEY-SYMO is classified as:


NORAD ID: 42779
Int'l Code: 2017-036Q
Perigee: 494.6 km
Apogee: 508.6 km
Inclination: 97.3 °
Period: 94.5 minutes
Semi major axis: 6872 km
RCS: Unknown
Launch date: June 23, 2017
Source: United States (US)
Launch site: SRIHARIKOTA (SRI)
aabbcc
Your satellite tracking list
Your tracking list is empty




NASA's NSSDC Master Catalog

Two Line Element Set (TLE):
1 42779U 17036Q   19262.40721369  .00001367  00000-0  59693-4 0  9991
2 42779  97.3452 318.9934 0010189 258.0635 101.9460 15.23773787124408
Source of the keplerian elements: AFSPC